EZS52RJ LSZH-LFSB

Flight info

Callsign EZS52RJ
Flight time 0h 21m
Altitude 8000
Route VEBI4E VEBIT DCT
Aircraft A320/M-SDE3FGHIRWY/LB1

Departure

Time 2026-04-30 17:41
Airport Zürich Airport (LSZH)

Arrival

Time 2026-04-30 18:02
Airport EuroAirport Basel–Mulhouse–Freiburg (LFSB)
Time Latitude Longitude Altitude Speed Heading
2026-04-30 17:39 47.45750 8.55833 1423 ft 149 kts 99°
2026-04-30 17:41 47.48818 8.66076 6469 ft 241 kts 325°
2026-04-30 17:42 47.50883 8.62190 7827 ft 251 kts 281°
2026-04-30 17:42 47.48603 8.54867 8241 ft 291 kts 233°
2026-04-30 17:43 47.46279 8.50023 8251 ft 288 kts 234°
2026-04-30 17:44 47.43285 8.42383 8236 ft 290 kts 262°
2026-04-30 17:44 47.45428 8.34427 8246 ft 288 kts 308°
2026-04-30 17:46 47.51415 8.22646 8230 ft 288 kts 308°
2026-04-30 17:47 47.56239 8.13080 8226 ft 291 kts 308°
2026-04-30 17:48 47.61072 8.03462 8235 ft 291 kts 308°
2026-04-30 17:48 47.64637 7.96221 8211 ft 287 kts 306°
2026-04-30 17:49 47.69456 7.86668 8221 ft 289 kts 308°
2026-04-30 17:50 47.73351 7.78898 8163 ft 288 kts 306°
2026-04-30 17:52 47.76504 7.72546 8233 ft 288 kts 308°
2026-04-30 17:53 47.82497 7.60430 7611 ft 292 kts 308°
2026-04-30 17:54 47.86032 7.48817 3807 ft 310 kts 257°
2026-04-30 17:55 47.81447 7.41640 4076 ft 221 kts 213°
2026-04-30 17:56 47.75923 7.41077 3910 ft 203 kts 151°
2026-04-30 17:57 47.72034 7.43817 3117 ft 207 kts 151°
2026-04-30 17:58 47.68570 7.46236 2391 ft 171 kts 151°
2026-04-30 17:59 47.64324 7.49215 1660 ft 161 kts 149°
2026-04-30 18:00 47.62746 7.54909 1693 ft 154 kts 79°
2026-04-30 18:00 47.62432 7.59338 1697 ft 164 kts 147°
2026-04-30 18:01 47.60449 7.58681 1562 ft 156 kts 226°
2026-04-30 18:02 47.59233 7.54469 992 ft 145 kts 255°
2026-04-30 18:02 47.58815 7.51811 890 ft 25 kts 257°
2026-04-30 18:03 47.59110 7.51914 886 ft 22 kts 45°
2026-04-30 18:04 47.59384 7.52531 887 ft 26 kts 65°
2026-04-30 18:05 47.59614 7.52901 894 ft 12 kts 65°
2026-04-30 18:06 47.59721 7.53219 894 ft 1 kts 65°
2026-04-30 18:07 47.59721 7.53220 894 ft 0 kts 65°